CZ-6A DEB, 55894

Orbit data source: Space-Track

CZ-6A DEB, 55894 is space debris in SSO originally from a launch on Fri, 11 Nov 2022 UTC launched from the Taiyaun Space Center, China (TSC). Debris objects in space refer to the collection of defunct objects orbiting the Earth. Examples of debris include non-operational satellites, rocket bodies, and fragments generated from explosions, collisions, or faulty payload assembly.

Loading next visibility...
Identifier
55894, 2022-151AAS
Orbit
SSO
Country
Flag of CNCN / PRC
Related business
Manufacturer
SAST
Mission
Spacecraft
Bus & Motor
Unknown
Mass
Unknown
Launch date (UTC)
2022-11-11 (3 years ago)
Launch vehicle
Unknown
Launch site
Taiyaun Space Center, China (TSC)
Object type
Payload
Rocket body
Debris
Shape & HBR
Unknown shape, 0.1 m
Radar Cross Section
Small (<0.1 m²)

Expand to show TLE details & history
Last TLE update: 22 hours ago

TLE from 22 hours ago
0 CZ-6A DEB
1 55894U 22151AAS 25349.11344960  .00027328  00000-0  24553-2 0  9996
2 55894  98.6423  54.4981 0046052  91.1348 269.5147 14.94837675158900
Epoch: 2025-12-15T02:43Z
TLE epoch observation values (Epoch: 2025-12-15T02:43:22.045Z)
Latitude
0.00004°
Longitude
-70.36044°
Altitude
586.314 km
Speed
7.567 km/s
True Right ascension
03h 37m 59s
True Declination
0° 00' 00"
Sunlit
Object was in full shadow at epoch
Visualization orbit readout
Latitude
Unknown
Longitude
Unknown
Altitude
Unknown
Speed
Unknown
Apparent Right ascension
Unknown
Apparent Declination
Unknown
Sunlit
N/A
Visualization observer readout
Local Sidereal Time
22:53:57
Azimuth
Unknown
Elevation
Unknown
Doppler factor
Unknown
Orbital elements
Apogee altitude
611.976 km
Perigee altitude
547.889 km
Semi-major axis
6,958.07 km
Eccentricity
0.00461
Inclination
98.6423°
RAAN
54.4981°
Arg. of periapsis
91.1348°
True anomaly
268.98704°
Mean anomaly
269.5147°
Eccentric anomaly
269.25086°
Mean motion
3.73947 °/min
Orbital period
96.27 mins
BSTAR
0.0024553
Loading maneuver chart data...
Computing Atmospheric mass density...
Loading historical data...
Loading historical data...
Loading historical data...
Loading historical data...
Loading historical data...
Loading historical data...
Loading historical data...

Documentation

Showing up to 5 results
|